Location: Three Oaks Observatory
(31.1535°N, 83.5955°W)
Time: 21:58:13
(UTC-04:00)

ISS - Visible Passes

Search period start: 15 October 2019 00:00
Search period end: 25 October 2019 00:00
Orbit: 411 x 421 km, 51.6° (Epoch: 15 October)

Date Brightness Start Highest point End Pass type
(mag) Time Alt. Az. Time Alt. Az. Time Alt. Az.
20 Oct -0.4 06:59:58 10° SSE 07:01:14 12° SE 07:02:31 10° ESE visible
22 Oct -2.4 06:57:23 10° SSW 07:00:34 41° SE 07:03:45 10° ENE visible
23 Oct -1.2 06:09:32 10° S 06:12:07 21° SE 06:14:42 10° ENE visible
24 Oct -0.4 05:23:58 10° ESE 05:23:58 10° ESE 05:24:25 10° ESE visible
24 Oct -3.5 06:56:57 11° WSW 07:00:05 49° NW 07:03:21 10° NNE visible
